Weather History for KSZL - January, 2012

Change the Weather History Date:

Saturday, January 14, 2012

  Actual Average Record
Temperature  
Mean Temperature 31 °F -  
Max Temperature 39 °F 36 °F 53 °F (2004)
Min Temperature 23 °F 20 °F 3 °F (1997)
Degree Days  
Heating Degree Days 34    
Moisture  
Dew Point 19 °F    
Average Humidity 65    
Maximum Humidity 86    
Minimum Humidity 47    
Precipitation  
Precipitation 0.00 in - - ()
Sea Level Pressure  
Sea Level Pressure 30.12 in    
Wind  
Wind Speed 10 mph (WSW)    
Max Wind Speed 21 mph    
Max Gust Speed 30 mph    
Visibility 10 miles    
Events      
Averages and records for this station are not official NWS values.
T = Trace of Precipitation, MM = Missing Value Source: NWS Daily Summary

Daily Weather History Graph

Daily Weather History Graph

Search for Another Location

Airport or City:

Trip Planner

Search our weather history database for the weather conditions in past years. The results will help you decide how hot, cold, wet, or windy it might be!

Date:

Astronomy

Jan. 14, 2012 Rise Set
Actual Time 7:31 AM CST 5:15 PM CST
Civil Twilight 7:02 AM CST 5:44 PM CST
Nautical Twilight 6:29 AM CST 6:17 PM CST
Astronomical Twilight 5:57 AM CST 6:49 PM CST
Moon 11:32 PM CST (1/14) 10:21 AM CST (1/14)
Length of Visible Light 10h 42m
Length of Day
9h 43m
Waning Gibbous, 68% of the Moon is Illuminated
Jan 14
Waning Gibbous
Jan 16
Last Quarter
Jan 23
New
Jan 30
First Quarter
Feb 7
Full

Hourly Weather History & Observations

Time (CST) Temp. Windchill Dew Point Humidity Pressure Visibility Wind Dir Wind Speed Gust Speed Precip Events Conditions
12:55 AM 25.3 °F 16.7 °F 15.4 °F 66% 30.03 in 10.0 mi South 8.1 mph - N/A   Partly Cloudy
1:55 AM 24.3 °F 13.9 °F 14.7 °F 67% 30.01 in 10.0 mi South 10.4 mph - N/A   Scattered Clouds
2:55 AM 27.1 °F 19.7 °F 16.7 °F 65% 29.98 in 10.0 mi South 6.9 mph - N/A   Scattered Clouds
3:55 AM 27.9 °F 18.4 °F 17.2 °F 64% 29.92 in 10.0 mi South 10.4 mph - N/A   Mostly Cloudy
4:55 AM 28.6 °F 19.3 °F 18.3 °F 65% 29.90 in 10.0 mi SSW 10.4 mph - N/A   Scattered Clouds
5:55 AM 29.5 °F 20.4 °F 18.5 °F 64% 29.91 in 10.0 mi SW 10.4 mph - N/A   Partly Cloudy
6:55 AM 30.4 °F 21.5 °F 19.8 °F 65% 29.93 in 10.0 mi WSW 10.4 mph - N/A   Clear
7:55 AM 31.6 °F 21.2 °F 20.8 °F 64% 29.96 in 10.0 mi WNW 15.0 mph - N/A   Clear
8:55 AM 32.9 °F 22.0 °F 20.3 °F 60% 30.02 in 10.0 mi NW 17.3 mph 25.3 mph N/A   Clear
9:55 AM 33.3 °F 21.5 °F 18.9 °F 56% 30.09 in 10.0 mi NW 20.7 mph 29.9 mph N/A   Clear
10:55 AM 32.4 °F 22.5 °F 18.3 °F 56% 30.14 in 10.0 mi NW 13.8 mph - N/A   Partly Cloudy
11:55 AM 33.3 °F 22.8 °F 18.3 °F 54% 30.17 in 10.0 mi NW 16.1 mph - N/A   Clear
12:55 PM 36.7 °F 28.0 °F 20.1 °F 51% 30.18 in 10.0 mi NNW 13.8 mph - N/A   Clear
1:55 PM 38.5 °F 31.6 °F 21.0 °F 50% 30.18 in 10.0 mi NNW 10.4 mph - N/A   Clear
2:55 PM 39.7 °F 32.7 °F 21.0 °F 47% 30.19 in 10.0 mi WNW 11.5 mph - N/A   Clear
3:55 PM 39.7 °F 33.7 °F 21.6 °F 48% 30.21 in 10.0 mi NW 9.2 mph - N/A   Clear
4:55 PM 37.6 °F 35.1 °F 22.1 °F 54% 30.23 in 10.0 mi WNW 3.5 mph - N/A   Scattered Clouds
5:55 PM 32.4 °F - 21.0 °F 63% 30.25 in 10.0 mi Calm Calm - N/A   Clear
6:55 PM 27.1 °F 20.7 °F 20.5 °F 76% 30.26 in 10.0 mi SSW 5.8 mph - N/A   Clear
7:55 PM 24.6 °F 20.3 °F 20.5 °F 84% 30.27 in 10.0 mi South 3.5 mph - N/A   Clear
8:55 PM 23.9 °F 19.5 °F 20.3 °F 86% 30.27 in 10.0 mi South 3.5 mph - N/A   Clear
9:55 PM 23.7 °F 15.6 °F 19.8 °F 85% 30.28 in 10.0 mi South 6.9 mph - N/A   Clear
10:55 PM 25.3 °F 17.6 °F 21.0 °F 84% 30.28 in 10.0 mi South 6.9 mph - N/A   Clear
11:55 PM 26.4 °F 18.0 °F 21.2 °F 81% 30.27 in 10.0 mi South 8.1 mph - N/A   Clear